星链-4592 (STARLINK-4592 )

导读 | 星芒AI

STARLINK-4592 是 SpaceX Starlink 项目中的一颗低轨通信卫星,用于提供全球宽带互联网服务。该卫星属于 Starlink 群体部署的一部分,运行在约 550 公里的近地轨道上,采用先进的推进系统和激光通信技术,以提高网络速度与稳定性。其发射有助于扩大 Starlink 在全球范围的覆盖,特别是在偏远和网络基础设施薄弱的地区。该卫星遵循 SpaceX 的可持续航天政策,具备自动避碰功能,以减少太空碎片风险。

基本信息
目录编号:
53634
目录名称:
STARLINK-4592
国际标识:
2022-104AY
轨道中心:
EARTH
卫星名称:
星链-4592
卫星全名:
星链-4592 (STARLINK-4592 )
卫星状态:
在轨 (已飞行1165 天)
发射日期:
2022-08-28 UTC
国别 :
美国 (US)
星等 :
--
轨道信息
数据来源 国际轨道数据
星历时间: 2025-11-04T22:36:40+0800
11小时前
查看轨道信息
半长轴: 6917.875km
偏心率: 0.0001231
轨道倾角: 53.218°
近地点辐角 87.375°
升交点赤经 65.533°
平近点角 272.738°
近地点: 538.888km
远地点: 540.592km
周期: 95.437分钟
每日圈数: 15.08842
详细信息
固有亮度:
5
最大亮度:
2.5
卫星平台:
Starlink v1.5
覆盖范围:
全球
运营商:
太空探索技术公司
运营商所在国:
美国
制造商(研发单位):
太空探索技术公司
制造商所在国:
美国
使用方式:
暂无
卫星简介
星链(Starlink)计划是由太空探索技术公司(SpaceX)提出的一个巨型低轨卫星互联网星座项目,计划在2019年至2024年间在太空搭建由约1.2万颗卫星组成的“星链”网络,其中1584颗将部署在地球上空550千米处的近地轨道,并从2020年开始工作。该卫星仍在工作。
2D轨道图
3D轨道图
轨道高度分析图
轨道倾角分析图
轨道综合分析图
查看轨道综合分析图